When you browse on this site, cookies collect data to enhance your experience and personalize the content and advertising you see.
Visit our Privacy Policy to learn more. By continuing to use the site, you agree to this use of cookies and data.
  • In United Kingdom
  • List of Countries
  • For 7 days
  • Water Temperature
  • Weather Map
  • Weather Widgets
  • user-avatar
    Login

    Hourly Weather Calarasi

    Today, 18 September, Wednesday

    Time Temperature Precipitation Wind Pressure Humidity
    00:00 +21°C° 0 mm 1 mps 756 mmHg 51%
    01:00 +21°C° 0 mm 1 mps 756 mmHg 51%
    02:00 +20°C° 0 mm 2 mps 756 mmHg 50%
    03:00 +20°C° 0 mm 2 mps 756 mmHg 51%
    04:00 +20°C° 0 mm 1 mps 756 mmHg 53%
    05:00 +20°C° 0 mm 1 mps 755 mmHg 55%
    06:00 +21°C° 0 mm 1 mps 756 mmHg 50%
    07:00 +23°C° 0 mm 1 mps 756 mmHg 45%
    08:00 +25°C° 0 mm 1 mps 756 mmHg 40%
    09:00 +25°C° 0 mm 2 mps 757 mmHg 39%
    10:00 +26°C° 0 mm 2 mps 757 mmHg 38%
    11:00 +27°C° 0 mm 3 mps 757 mmHg 37%
    12:00 +26°C° 0 mm 4 mps 758 mmHg 40%
    13:00 +25°C° 0 mm 5 mps 758 mmHg 43%
    14:00 +23°C° 0 mm 6 mps 758 mmHg 45%
    15:00 +23°C° 0 mm 5 mps 759 mmHg 45%
    16:00 +23°C° 0 mm 4 mps 759 mmHg 45%
    17:00 +22°C° 0 mm 3 mps 759 mmHg 45%
    18:00 +21°C° 0 mm 3 mps 760 mmHg 49%
    19:00 +19°C° 0 mm 2 mps 761 mmHg 52%
    20:00 +17°C° 0 mm 2 mps 762 mmHg 55%
    21:00 +17°C° 0 mm 2 mps 762 mmHg 55%
    22:00 +16°C° 0 mm 2 mps 763 mmHg 54%
    23:00 +15°C° 0 mm 1 mps 763 mmHg 53%

    Tomorrow, 19 September, Thursday

    Time Temperature Precipitation Wind Pressure Humidity
    00:00 +15°C° 0 mm 2 mps 763 mmHg 53%
    01:00 +15°C° 0 mm 2 mps 764 mmHg 54%
    02:00 +15°C° 0 mm 2 mps 764 mmHg 54%
    03:00 +14°C° 0 mm 3 mps 764 mmHg 54%
    04:00 +13°C° 0 mm 3 mps 764 mmHg 54%
    05:00 +12°C° 0 mm 4 mps 764 mmHg 53%
    06:00 +13°C° 0 mm 4 mps 764 mmHg 51%
    07:00 +14°C° 0 mm 4 mps 764 mmHg 48%
    08:00 +15°C° 0 mm 4 mps 764 mmHg 45%
    09:00 +17°C° 0 mm 4 mps 764 mmHg 46%
    10:00 +19°C° 0 mm 4 mps 764 mmHg 47%
    11:00 +21°C° 0 mm 3 mps 764 mmHg 48%
    12:00 +21°C° 0 mm 3 mps 764 mmHg 46%
    13:00 +22°C° 0 mm 3 mps 764 mmHg 44%
    14:00 +22°C° 0 mm 3 mps 763 mmHg 42%
    15:00 +21°C° 0 mm 3 mps 763 mmHg 41%
    16:00 +20°C° 0 mm 4 mps 763 mmHg 41%
    17:00 +19°C° 0 mm 4 mps 763 mmHg 40%
    18:00 +17°C° 0.1 mm 4 mps 763 mmHg 50%
    19:00 +14°C° 0.1 mm 4 mps 764 mmHg 59%
    20:00 +12°C° 0.1 mm 3 mps 764 mmHg 68%
    21:00 +12°C° 0.1 mm 3 mps 764 mmHg 73%
    22:00 +11°C° 0.1 mm 3 mps 764 mmHg 78%
    23:00 +11°C° 0.1 mm 3 mps 764 mmHg 83%

    Day after tomorrow, 20 September, Friday

    Time Temperature Precipitation Wind Pressure Humidity
    00:00 +10°C° 0 mm 3 mps 764 mmHg 87%
    01:00 +9°C° 0 mm 3 mps 764 mmHg 90%
    02:00 +8°C° 0 mm 3 mps 764 mmHg 94%
    03:00 +8°C° 0 mm 3 mps 764 mmHg 94%
    04:00 +8°C° 0 mm 3 mps 764 mmHg 95%
    05:00 +8°C° 0 mm 3 mps 764 mmHg 95%
    06:00 +9°C° 0 mm 3 mps 764 mmHg 87%
    07:00 +11°C° 0 mm 3 mps 764 mmHg 80%
    08:00 +12°C° 0 mm 3 mps 764 mmHg 73%
    09:00 +14°C° 0 mm 3 mps 764 mmHg 64%
    10:00 +17°C° 0 mm 3 mps 765 mmHg 54%
    11:00 +19°C° 0 mm 3 mps 765 mmHg 45%
    12:00 +20°C° 0 mm 3 mps 764 mmHg 39%
    13:00 +21°C° 0 mm 4 mps 764 mmHg 33%
    14:00 +22°C° 0 mm 4 mps 764 mmHg 26%
    15:00 +22°C° 0 mm 4 mps 764 mmHg 25%
    16:00 +21°C° 0 mm 3 mps 764 mmHg 23%
    17:00 +21°C° 0 mm 3 mps 764 mmHg 22%
    18:00 +19°C° 0 mm 3 mps 764 mmHg 27%
    19:00 +16°C° 0 mm 3 mps 765 mmHg 33%
    20:00 +13°C° 0 mm 3 mps 766 mmHg 38%
    21:00 +12°C° 0 mm 3 mps 766 mmHg 42%
    22:00 +11°C° 0 mm 3 mps 766 mmHg 45%
    23:00 +10°C° 0 mm 3 mps 767 mmHg 48%

    21 September, Saturday

    Time Temperature Precipitation Wind Pressure Humidity
    00:00 +9°C° 0 mm 2 mps 767 mmHg 48%
    01:00 +9°C° 0 mm 2 mps 767 mmHg 49%
    02:00 +9°C° 0 mm 1 mps 768 mmHg 50%
    03:00 +9°C° 0 mm 1 mps 768 mmHg 50%
    04:00 +9°C° 0 mm 1 mps 768 mmHg 51%
    05:00 +7°C° 0 mm 2 mps 768 mmHg 51%
    06:00 +9°C° 0 mm 2 mps 768 mmHg 47%
    07:00 +12°C° 0 mm 2 mps 769 mmHg 42%
    08:00 +13°C° 0 mm 2 mps 769 mmHg 38%
    09:00 +15°C° 0 mm 2 mps 769 mmHg 34%
    10:00 +17°C° 0 mm 3 mps 769 mmHg 31%
    11:00 +19°C° 0 mm 3 mps 769 mmHg 27%
    12:00 +20°C° 0 mm 3 mps 768 mmHg 25%
    13:00 +21°C° 0 mm 3 mps 768 mmHg 24%
    14:00 +21°C° 0 mm 3 mps 768 mmHg 22%
    15:00 +21°C° 0 mm 2 mps 767 mmHg 22%
    16:00 +21°C° 0 mm 2 mps 767 mmHg 22%
    17:00 +21°C° 0 mm 2 mps 767 mmHg 22%
    18:00 +19°C° 0 mm 2 mps 767 mmHg 28%
    19:00 +16°C° 0 mm 3 mps 768 mmHg 34%
    20:00 +13°C° 0 mm 3 mps 768 mmHg 40%
    21:00 +12°C° 0 mm 3 mps 768 mmHg 47%
    22:00 +11°C° 0 mm 3 mps 768 mmHg 55%
    23:00 +10°C° 0 mm 3 mps 768 mmHg 62%

    22 September, Sunday

    Time Temperature Precipitation Wind Pressure Humidity
    00:00 +10°C° 0 mm 3 mps 768 mmHg 64%
    01:00 +10°C° 0 mm 3 mps 768 mmHg 66%
    02:00 +10°C° 0 mm 2 mps 768 mmHg 68%
    03:00 +9°C° 0 mm 2 mps 768 mmHg 70%
    04:00 +9°C° 0 mm 2 mps 767 mmHg 72%
    05:00 +10°C° 0 mm 1 mps 767 mmHg 74%
    06:00 +12°C° 0 mm 1 mps 767 mmHg 65%
    07:00 +14°C° 0 mm 2 mps 767 mmHg 57%
    08:00 +16°C° 0 mm 2 mps 767 mmHg 48%
    09:00 +18°C° 0 mm 2 mps 767 mmHg 40%
    10:00 +20°C° 0 mm 3 mps 766 mmHg 33%
    11:00 +24°C° 0 mm 3 mps 766 mmHg 25%
    12:00 +25°C° 0 mm 3 mps 765 mmHg 24%
    13:00 +26°C° 0 mm 3 mps 765 mmHg 22%
    14:00 +27°C° 0 mm 3 mps 764 mmHg 21%
    15:00 +26°C° 0 mm 3 mps 764 mmHg 22%
    16:00 +26°C° 0 mm 3 mps 763 mmHg 23%
    17:00 +26°C° 0 mm 3 mps 763 mmHg 24%
    18:00 +22°C° 0 mm 4 mps 763 mmHg 34%
    19:00 +19°C° 0 mm 5 mps 763 mmHg 44%
    20:00 +15°C° 0 mm 6 mps 763 mmHg 55%
    21:00 +14°C° 0 mm 5 mps 763 mmHg 59%
    22:00 +14°C° 0 mm 5 mps 763 mmHg 63%
    23:00 +13°C° 0 mm 4 mps 763 mmHg 67%

    23 September, Monday

    Time Temperature Precipitation Wind Pressure Humidity
    00:00 +13°C° 0 mm 4 mps 763 mmHg 69%
    01:00 +12°C° 0 mm 3 mps 763 mmHg 71%
    02:00 +12°C° 0 mm 3 mps 763 mmHg 73%
    03:00 +11°C° 0 mm 3 mps 762 mmHg 75%
    04:00 +11°C° 0 mm 3 mps 762 mmHg 78%
    05:00 +12°C° 0 mm 2 mps 762 mmHg 80%
    06:00 +12°C° 0 mm 3 mps 761 mmHg 72%
    07:00 +14°C° 0 mm 3 mps 761 mmHg 64%
    08:00 +17°C° 0 mm 3 mps 761 mmHg 57%
    09:00 +20°C° 0 mm 3 mps 761 mmHg 47%
    10:00 +24°C° 0 mm 3 mps 761 mmHg 37%
    11:00 +27°C° 0 mm 3 mps 760 mmHg 28%
    12:00 +28°C° 0 mm 3 mps 760 mmHg 24%
    13:00 +29°C° 0 mm 3 mps 759 mmHg 21%
    14:00 +30°C° 0 mm 3 mps 758 mmHg 18%
    15:00 +30°C° 0 mm 3 mps 758 mmHg 19%
    16:00 +30°C° 0 mm 2 mps 757 mmHg 19%
    17:00 +29°C° 0 mm 2 mps 757 mmHg 20%
    18:00 +26°C° 0 mm 3 mps 757 mmHg 33%
    19:00 +22°C° 0 mm 4 mps 757 mmHg 46%
    20:00 +17°C° 0 mm 5 mps 757 mmHg 60%
    21:00 +17°C° 0 mm 5 mps 757 mmHg 63%
    22:00 +18°C° 0 mm 4 mps 757 mmHg 66%
    23:00 +17°C° 0 mm 4 mps 757 mmHg 70%
    Show more